Rochester, Indiana, United States (46975)
Lat: 41.06N, Lon: 86.22W
Wx Zone: INZ015
Local Info
Past Weather Observations for Today

NOTE: This archive is for the closest National Weather Service station to Rochester. Information may differ from the station used for current weather conditions.

Click here for Long-term Archive

Time Weather Temperature Dewpoint Humidity Pressure Winds Precip Visibility
21:35
Clear
50°F / 10°C 36°F / 2°C 58% 29.92 in
(1013 mb)
WNW 8.1 mph
(WNW 13 kph)
- 10SM
21:15
Clear
50°F / 10°C 36°F / 2°C 58% 29.92 in
(1013 mb)
WNW 9.2 mph
(WNW 15 kph)
- 10SM
20:55
Clear
52°F / 11°C 36°F / 2°C 54% 29.92 in
(1013 mb)
NW 8.1 mph
(NW 13 kph)
- 10SM
20:35
Clear
52°F / 11°C 36°F / 2°C 54% 29.92 in
(1013 mb)
NW 8.1 mph
(NW 13 kph)
- 10SM
20:15
Clear
52°F / 11°C 36°F / 2°C 54% 29.92 in
(1013 mb)
WNW 8.1 mph
(WNW 13 kph)
- 10SM
19:55
Clear
52°F / 11°C 37°F / 3°C 58% 29.89 in
(1012 mb)
WNW 8.1 mph
(WNW 13 kph)
- 10SM
19:35
Clear
52°F / 11°C 37°F / 3°C 58% 29.89 in
(1012 mb)
WNW 6.9 mph
(WNW 11 kph)
- 10SM
19:15
Clear
52°F / 11°C 37°F / 3°C 58% 29.89 in
(1012 mb)
NW 6.9 mph
(NW 11 kph)
- 10SM
18:55
Clear
54°F / 12°C 37°F / 3°C 54% 29.89 in
(1012 mb)
W 5.8 mph
(W 9 kph)
- 10SM
18:35
Clear
55°F / 13°C 37°F / 3°C 51% 29.89 in
(1012 mb)
W 8.1 mph
(W 13 kph)
- 10SM
18:15
Clear
55°F / 13°C 37°F / 3°C 51% 29.89 in
(1012 mb)
W 8.1 mph
(W 13 kph)
- 10SM
17:55
Clear
59°F / 15°C 37°F / 3°C 45% 29.89 in
(1012 mb)
WNW 8.1 mph
(WNW 13 kph)
- 10SM
17:35
Clear
63°F / 17°C 37°F / 3°C 39% 29.89 in
(1012 mb)
WNW 9.2 mph
(WNW 15 kph)
- 10SM
17:15
Clear
64°F / 18°C 36°F / 2°C 34% 29.89 in
(1012 mb)
NW 12.7 mph
(NW 20 kph)
- 10SM
16:55
Clear
66°F / 19°C 36°F / 2°C 32% 29.89 in
(1012 mb)
NW 18.4 mph
(NW 30 kph)
- 10SM
16:35
Clear
68°F / 20°C 34°F / 1°C 28% 29.89 in
(1012 mb)
NW 15 mph
(NW 24 kph)
- 10SM
16:15
Clear
68°F / 20°C 34°F / 1°C 28% 29.89 in
(1012 mb)
NW 16.1 mph
(NW 26 kph)
- 10SM
15:55
Clear
68°F / 20°C 32°F / 0°C 26% 29.89 in
(1012 mb)
NW 19.6 mph
(NW 32 kph)
- 10SM
15:35
Clear
68°F / 20°C 36°F / 2°C 30% 29.89 in
(1012 mb)
WNW 17.3 mph
(WNW 28 kph)
- 10SM
15:15
Clear
68°F / 20°C 36°F / 2°C 30% 29.89 in
(1012 mb)
WNW 16.1 mph
(WNW 26 kph)
- 10SM
14:55
Clear
68°F / 20°C 41°F / 5°C 38% 29.89 in
(1012 mb)
NW 16.1 mph
(NW 26 kph)
- 10SM
14:35
Clear
68°F / 20°C 43°F / 6°C 40% 29.89 in
(1012 mb)
NW 15 mph
(NW 24 kph)
- 10SM
14:15
Clear
68°F / 20°C 43°F / 6°C 40% 29.89 in
(1012 mb)
NW 18.4 mph
(NW 30 kph)
- 10SM
13:55
Clear
68°F / 20°C 46°F / 8°C 46% 29.89 in
(1012 mb)
NW 15 mph
(NW 24 kph)
- 10SM
13:35
Clear
66°F / 19°C 52°F / 11°C 60% 29.92 in
(1013 mb)
NW 12.7 mph
(NW 20 kph)
- 10SM
13:15
Partly Cloudy
64°F / 18°C 54°F / 12°C 68% 29.92 in
(1013 mb)
W 12.7 mph
(W 20 kph)
- 7SM
12:55
Partly Cloudy
Hazy
63°F / 17°C 54°F / 12°C 73% 29.92 in
(1013 mb)
NW 17.3 mph
(NW 28 kph)
- 5SM
12:35
Partly Cloudy
Hazy
63°F / 17°C 54°F / 12°C 73% 29.95 in
(1014 mb)
WNW 12.7 mph
(WNW 20 kph)
- 5SM
12:15
Partly Cloudy
Hazy
63°F / 17°C 54°F / 12°C 73% 29.95 in
(1014 mb)
WNW 12.7 mph
(WNW 20 kph)
- 5SM
11:55
Clear
Hazy
63°F / 17°C 54°F / 12°C 73% 29.95 in
(1014 mb)
WNW 13.8 mph
(WNW 22 kph)
- 5SM
11:35
Clear
63°F / 17°C 54°F / 12°C 73% 29.95 in
(1014 mb)
NW 15 mph
(NW 24 kph)
- 7SM
11:15
Clear
63°F / 17°C 55°F / 13°C 77% 29.92 in
(1013 mb)
SSW 11.5 mph
(SSW 19 kph)
- 7SM
10:55
Clear
63°F / 17°C 54°F / 12°C 73% 29.92 in
(1013 mb)
W 12.7 mph
(W 20 kph)
- 7SM
10:35
Clear
61°F / 16°C 55°F / 13°C 83% 29.92 in
(1013 mb)
W 11.5 mph
(W 19 kph)
- 7SM
10:15
Clear
Hazy
61°F / 16°C 54°F / 12°C 77% 29.92 in
(1013 mb)
SSW 8.1 mph
(SSW 13 kph)
- 5SM
09:55
Clear
Fog And Mist
59°F / 15°C 54°F / 12°C 82% 29.92 in
(1013 mb)
SSW 8.1 mph
(SSW 13 kph)
- 5SM
09:35
Partly Cloudy
Fog And Mist
55°F / 13°C 54°F / 12°C 94% 29.92 in
(1013 mb)
SSW 6.9 mph
(SSW 11 kph)
- 5SM
09:15
Clear
Fog And Mist
55°F / 13°C 52°F / 11°C 88% 29.92 in
(1013 mb)
SSW 8.1 mph
(SSW 13 kph)
- 4SM
08:55
Clear
Fog And Mist
54°F / 12°C 52°F / 11°C 94% 29.92 in
(1013 mb)
SSW 6.9 mph
(SSW 11 kph)
- 4SM
08:35
Clear
Fog And Mist
54°F / 12°C 52°F / 11°C 94% 29.92 in
(1013 mb)
SSW 5.8 mph
(SSW 9 kph)
- 4SM
08:15
Clear
Fog And Mist
52°F / 11°C 52°F / 11°C 100% 29.92 in
(1013 mb)
SSW 4.6 mph
(SSW 7 kph)
- 4SM
07:55
Clear
Fog And Mist
52°F / 11°C 52°F / 11°C 100% 29.92 in
(1013 mb)
SSW 5.8 mph
(SSW 9 kph)
- 4SM
07:35
Clear
Fog And Mist
52°F / 11°C 52°F / 11°C 100% 29.92 in
(1013 mb)
SSW 4.6 mph
(SSW 7 kph)
- 4SM
07:15
Clear
Fog And Mist
52°F / 11°C 52°F / 11°C 100% 29.92 in
(1013 mb)
SSW 4.6 mph
(SSW 7 kph)
- 5SM
06:55
Partly Cloudy
52°F / 11°C 52°F / 11°C 100% 29.92 in
(1013 mb)
SSW 4.6 mph
(SSW 7 kph)
- 7SM
06:35
Overcast
54°F / 12°C 52°F / 11°C 94% 29.92 in
(1013 mb)
SSW 5.8 mph
(SSW 9 kph)
- 7SM
06:15
Overcast
54°F / 12°C 52°F / 11°C 94% 29.92 in
(1013 mb)
SSW 8.1 mph
(SSW 13 kph)
- 7SM
05:55
Overcast
54°F / 12°C 52°F / 11°C 94% 29.92 in
(1013 mb)
SW 4.6 mph
(SW 7 kph)
- 7SM
05:35
Mostly Cloudy
54°F / 12°C 52°F / 11°C 94% 29.92 in
(1013 mb)
SSW 6.9 mph
(SSW 11 kph)
- 7SM
05:15
Mostly Cloudy
54°F / 12°C 52°F / 11°C 94% 29.92 in
(1013 mb)
SSW 5.8 mph
(SSW 9 kph)
- 7SM
04:55
Partly Cloudy
54°F / 12°C 52°F / 11°C 94% 29.92 in
(1013 mb)
SSW 4.6 mph
(SSW 7 kph)
- 7SM
04:35
Mostly Cloudy
54°F / 12°C 52°F / 11°C 94% 29.92 in
(1013 mb)
SW 3.5 mph
(SW 6 kph)
- 7SM
04:15
Overcast
55°F / 13°C 52°F / 11°C 88% 29.92 in
(1013 mb)
Calm - 10SM
03:55
Overcast
55°F / 13°C 52°F / 11°C 88% 29.92 in
(1013 mb)
SW 3.5 mph
(SW 6 kph)
- 10SM
03:35
Overcast
54°F / 12°C 52°F / 11°C 94% 29.92 in
(1013 mb)
SW 3.5 mph
(SW 6 kph)
- 10SM
03:15
Overcast
54°F / 12°C 52°F / 11°C 94% 29.92 in
(1013 mb)
SSE 3.5 mph
(SSE 6 kph)
- 7SM
02:55
Overcast
54°F / 12°C 52°F / 11°C 94% 29.92 in
(1013 mb)
S 4.6 mph
(S 7 kph)
- 7SM
02:35
Overcast
54°F / 12°C 52°F / 11°C 94% 29.95 in
(1014 mb)
Calm - 7SM
02:15
Overcast
54°F / 12°C 50°F / 10°C 88% 29.95 in
(1014 mb)
Calm - 7SM
01:55
Overcast
52°F / 11°C 50°F / 10°C 94% 29.95 in
(1014 mb)
SW 3.5 mph
(SW 6 kph)
- 7SM
01:35
Overcast
52°F / 11°C 50°F / 10°C 94% 29.98 in
(1015 mb)
Calm - 7SM
01:15
Overcast
52°F / 11°C 50°F / 10°C 94% 29.98 in
(1015 mb)
SSW 3.5 mph
(SSW 6 kph)
- 7SM
00:55
Mostly Cloudy
50°F / 10°C 50°F / 10°C 100% 29.95 in
(1014 mb)
Calm - 7SM
00:35
Clear
52°F / 11°C 50°F / 10°C 94% 29.98 in
(1015 mb)
Calm - 10SM
00:15
Clear
52°F / 11°C 50°F / 10°C 94% 29.98 in
(1015 mb)
Calm - 10SM
Time Weather Temperature Dewpoint Humidity Pressure Winds Precip Visibility


Weather for websites

WeatherForYou.com, LLC is not responsible for any damages or problems caused by this service. Current weather conditions are obtained from the closest station including government and personal stations which may have varying degrees of accuracy. Weather forecasts are derived from the NOAA NDFD. Like all things, this site belongs to Jesus Christ... He just trusts me to maintain it. If you have any questions or comments email webmaster@weatherforyou.com

Copyright © 2014, WeatherForYou.com LLC. All rights reserved.